Cloud_Cover
100 100 100 100 100 100 100 100 100 100 100 100 100 100 100 100 100 100 100 100 100 100 100 100 100 100 100 100 100 100 100 100 100 100 100 100 100 96 23 5 56 37 52 21 77 100 100 100 95 100 100 100 100 100
100 100 100 100 100 100 100 100 100 100 100 100 100 100 100 100 100 100 100 100 100 100 100 100 100 100 100 100 100 100 100 100 100 100 100 100 49 19 4 5 0 4 50 61 38 10 5 24 30 5 4 5 5 5
100 100 100 100 100 100 100 100 100 100 100 100 100 100 100 100 100 100 100 100 100 100 100 100 100 100 100 100 100 100 100 100 100 99 66 41 90 10 4 0 1 0 0 3 1 12 5 4 53 98 100 100 100 100
100 100 100 100 100 100 100 100 100 100 100 100 100 100 100 100 100 100 100 100 100 100 100 100 100 100 100 100 100 95 100 100 75 51 55 86 8 0 3 3 4 3 2 2 5 5 6 72 66 100 100 100 100 100
100 100 100 100 100 100 100 100 100 100 100 100 100 100 100 100 100 100 100 100 100 100 100 100 100 100 100 62 75 100 100 94 93 57 5 4 5 4 4 3 3 0 1 21 12 5 19 74 84 100 100 100 100 100
100 100 100 100 100 100 100 100 100 100 100 100 100 100 100 100 100 100 100 100 100 100 100 100 100 98 5 7 87 75 5 5 5 5 8 6 5 4 12 42 0 0 0 0 2 4 5 57 99 96 99 100 100 100
100 100 100 100 100 100 100 100 100 100 100 100 100 100 100 100 100 100 100 100 81 37 86 100 100 62 94 11 69 91 15 5 5 3 10 12 40 5 26 5 0 0 1 1 5 55 80 37 93 84 76 71 95 100
100 100 100 100 100 100 100 100 100 100 100 100 100 100 100 100 64 61 60 81 17 10 97 100 12 3 4 83 15 6 28 12 5 6 5 26 3 5 5 0 0 0 5 4 6 22 11 6 78 97 94 100 100 100
100 100 100 100 100 100 100 100 100 100 100 100 100 100 100 40 100 97 84 64 5 16 7 10 5 41 16 47 9 32 26 98 81 33 6 5 6 25 0 0 0 1 5 80 16 10 100 95 67 52 93 76 86 100
100 100 100 100 100 100 100 100 100 100 100 100 100 100 99 99 26 30 5 5 5 7 18 5 5 5 5 7 64 42 90 99 94 23 32 20 11 0 4 3 5 5 5 28 62 13 87 100 98 99 100 76 96 90
98 100 100 100 100 100 100 100 100 100 100 100 100 100 100 98 18 7 37 43 99 96 5 5 32 85 97 19 96 80 97 99 94 34 98 93 66 30 10 10 6 74 68 98 89 92 88 79 74 83 93 100 87 70
100 100 100 100 100 100 100 100 100 94 90 100 44 68 67 100 65 91 53 42 30 7 5 27 43 65 100 100 90 5 9 29 10 68 100 96 100 100 94 100 100 100 100 100 100 100 100 100 100 100 79 95 100 100
100 100 100 100 100 100 100 100 100 100 99 100 100 100 80 32 46 80 43 12 16 15 92 100 100 99 24 5 30 40 95 60 37 96 80 66 86 100 100 100 100 100 100 100 100 100 100 100 100 100 100 100 100 100
100 100 100 100 100 100 98 66 30 13 6 5 8 86 80 57 72 21 64 97 100 97 92 64 5 4 5 15 47 89 16 8 44 65 49 64 92 100 100 100 100 100 100 100 100 100 100 100 100 100 100 100 98 100
3 4 8 11 5 5 7 9 31 62 17 5 26 97 100 89 63 71 8 5 5 5 5 58 39 69 40 72 13 13 42 35 5 92 95 100 94 100 100 100 100 100 100 100 100 100 100 100 100 100 100 100 99 76
0 0 0 0 2 10 21 3 0 5 4 4 1 7 60 29 72 38 5 10 26 6 5 5 5 53 67 5 62 19 5 6 51 94 95 62 95 100 99 90 94 92 94 83 16 18 59 79 66 64 99 98 86 85
2 3 0 0 0 0 5 5 4 0 4 5 5 12 5 5 8 6 6 5 5 5 25 5 40 8 49 41 10 6 49 50 59 78 85 92 72 91 73 48 67 100 74 7 5 16 66 98 88 67 79 100 97 100
26 13 0 0 2 5 5 5 79 11 5 5 5 5 5 5 5 5 5 5 5 7 44 6 18 59 5 40 5 92 90 94 100 81 100 100 85 36 79 100 100 100 94 100 100 100 97 96 86 96 99 95 100 100
1 0 4 5 5 15 15 4 4 5 18 11 12 40 42 6 6 5 5 4 5 13 41 12 15 32 18 38 58 100 82 82 73 89 79 69 90 96 100 90 100 100 100 100 100 99 100 100 99 27 45 58 100 100
0 0 0 0 0 5 5 5 4 2 3 42 5 5 5 3 3 5 4 5 5 80 99 79 9 5 5 21 23 11 68 83 96 66 85 100 100 100 100 86 71 83 100 100 100 100 100 100 99 95 96 95 96 74
5 5 5 5 1 5 5 18 5 5 5 5 5 5 5 5 5 5 5 5 74 100 55 11 9 36 12 88 100 85 39 20 7 58 83 80 88 62 93 100 98 80 81 56 36 6 6 16 83 88 82 82 60 9
6 5 5 5 5 5 5 6 5 31 5 5 5 5 5 5 5 5 5 16 25 6 6 8 91 46 86 88 10 5 5 5 12 14 21 73 98 100 79 8 55 58 21 10 15 20 58 100 99 100 99 92 78 46
14 19 26 28 31 9 11 20 29 5 9 11 9 7 5 5 5 5 5 5 8 18 15 26 11 5 9 6 5 5 5 29 85 99 100 100 100 94 69 49 96 99 58 54 69 78 76 55 52 49 34 6 10 5
39 52 63 72 77 84 50 62 41 26 20 41 44 55 55 36 49 48 22 6 26 13 5 5 5 5 5 5 13 41 10 43 92 100 98 100 100 98 33 5 5 5 56 99 97 90 67 48 42 5 5 19 5 58
35 34 46 52 91 95 94 76 76 92 84 56 42 68 96 100 89 74 52 42 70 56 30 10 5 5 5 6 75 84 65 96 100 100 100 72 5 5 3 5 5 86 99 100 77 61 14 7 7 40 11 43 63 76
44 39 72 38 80 69 73 88 65 66 84 93 67 64 98 96 91 100 100 100 82 42 51 56 51 6 12 26 74 86 85 96 100 86 27 4 5 6 64 84 65 61 32 49 100 96 84 76 97 82 89 86 96 100
91 54 98 85 93 85 61 60 83 67 91 100 99 81 91 100 100 100 100 100 81 51 26 6 32 19 78 98 49 50 74 38 5 5 5 5 16 6 13 66 63 73 100 79 78 98 100 100 100 100 100 100 97 100
100 100 100 100 100 94 100 92 72 81 98 100 100 100 97 100 100 100 100 100 96 69 42 35 95 100 96 12 5 5 5 5 5 5 5 6 58 50 5 34 73 11 42 60 68 64 94 83 100 100 100 100 100 82
100 100 100 100 99 78 82 100 87 100 100 100 100 100 100 100 100 100 100 100 100 100 70 98 87 61 9 5 23 10 6 5 5 96 100 98 82 17 48 76 46 39 47 72 61 24 49 92 79 100 90 97 96 100
94 100 100 100 100 99 100 100 98 98 100 100 100 100 100 100 100 100 100 100 100 100 95 64 50 40 59 26 46 90 72 26 8 22 63 83 84 46 89 80 81 62 62 92 97 60 54 35 48 58 55 72 98 99
100 94 100 100 100 96 100 100 100 100 100 100 100 100 100 100 100 100 100 100 100 100 99 96 96 61 46 51 56 94 99 60 22 15 32 54 66 75 78 75 76 88 98 98 94 67 90 72 66 70 74 82 83 90
100 100 100 100 100 100 100 100 100 100 95 100 100 100 100 100 100 100 100 100 100 100 100 100 94 59 23 41 13 15 5 60 87 58 6 60 75 85 92 56 60 94 82 49 53 89 76 86 77 84 96 91 79 85
94 100 100 100 100 100 100 100 100 100 100 100 100 100 100 100 100 100 100 100 100 100 100 100 86 62 50 7 6 46 60 71 64 54 84 96 83 57 52 88 99 70 32 87 19 88 97 78 98 97 85 88 82 78